Dillingham, AK

10:01 PM AKDT on April 23, 2017 (GMT -0800)
Dillingham

Weather History for PADL - February, 2014

Change the Weather History Date:

Friday, February 28, 2014

  Actual Average Record
Temperature  
Mean Temperature 38 °F -  
Max Temperature 41 °F 24 °F 44 °F (1991)
Min Temperature 35 °F 9 °F -21 °F (1986)
Degree Days  
Heating Degree Days 27    
Moisture  
Dew Point 34 °F    
Average Humidity 88    
Maximum Humidity 100    
Minimum Humidity 70    
Precipitation  
Precipitation 0.00 in - - ()
Sea Level Pressure  
Sea Level Pressure 29.93 in    
Wind  
Wind Speed 15 mph (ESE)    
Max Wind Speed 24 mph    
Max Gust Speed 31 mph    
Visibility 12 miles    
Events Rain    
Averages and records for this station are not official NWS values.
T = Trace of Precipitation, MM = Missing Value Source: NWS Daily Summary

Daily Weather History Graph

Daily Weather History Graph

Search for Another Location

Airport or City:

Trip Planner

Search our weather history database for the weather conditions in past years. The results will help you decide how hot, cold, wet, or windy it might be!

Date:

Astronomy

Feb. 28, 2014 Rise Set
Actual Time 8:32 AM AKST 7:01 PM AKST
Civil Twilight 7:51 AM AKST 7:42 PM AKST
Nautical Twilight 7:05 AM AKST 8:29 PM AKST
Astronomical Twilight 6:17 AM AKST 9:16 PM AKST
Moon 7:55 AM AKST (2/28) 6:58 PM AKST (2/28)
Length of Visible Light 11h 50m
Length of Day
10h 28m
Waning Crescent, 0% of the Moon is Illuminated
Feb 28
Waning Crescent
Feb 28
New
Mar 8
First Quarter
Mar 16
Full
Mar 23
Last Quarter

Hourly Weather History & Observations

Time (AKST) Temp. Windchill Dew Point Humidity Pressure Visibility Wind Dir Wind Speed Gust Speed Precip Events Conditions
12:08 AM 37.4 °F 26.1 °F 33.8 °F 87% 29.74 in 10.0 mi East 24.2 mph 31.1 mph N/A   Overcast
12:54 AM 37.4 °F 26.6 °F 33.8 °F 87% 29.75 in 10.0 mi East 21.9 mph 31.1 mph N/A   Overcast
2:03 AM 37.4 °F 26.1 °F 33.8 °F 87% 29.76 in 10.0 mi East 24.2 mph 31.1 mph N/A   Overcast
3:01 AM 37.4 °F 27.5 °F 33.8 °F 87% 29.79 in 10.0 mi East 18.4 mph 26.5 mph N/A   Overcast
3:50 AM 37.4 °F 27.2 °F 33.8 °F 87% 29.81 in 10.0 mi East 19.6 mph 25.3 mph N/A   Overcast
4:58 AM 35.6 °F 27.1 °F 35.6 °F 100% 29.84 in 10.0 mi East 12.7 mph 18.4 mph N/A   Overcast
5:55 AM 35.6 °F 26.6 °F 35.6 °F 100% 29.87 in 9.0 mi ESE 13.8 mph 18.4 mph N/A   Overcast
7:03 AM 35.6 °F 26.6 °F 35.6 °F 100% 29.90 in 10.0 mi ESE 13.8 mph 19.6 mph N/A   Overcast
7:45 AM 35.6 °F 26.2 °F 33.8 °F 93% 29.91 in 10.0 mi ESE 15.0 mph 23.0 mph N/A Rain Light Rain
8:13 AM 35.6 °F 26.6 °F 35.6 °F 100% 29.93 in 3.0 mi SE 13.8 mph 25.3 mph N/A Rain Light Rain
8:48 AM 35.6 °F 26.6 °F 33.8 °F 93% 29.95 in 10.0 mi SE 13.8 mph 19.6 mph N/A Rain Light Rain Showers
9:53 AM 35.6 °F 28.0 °F 33.8 °F 93% 29.98 in 15.0 mi SE 10.4 mph - N/A   Overcast
10:46 AM 35.6 °F 29.2 °F 33.8 °F 93% 29.99 in 15.0 mi SE 8.1 mph - N/A   Overcast
11:47 AM 35.6 °F 29.2 °F 33.8 °F 93% 30.01 in 15.0 mi SE 8.1 mph - N/A   Mostly Cloudy
12:46 PM 37.4 °F 30.8 °F 33.8 °F 87% 30.02 in 15.0 mi SE 9.2 mph 13.8 mph N/A   Overcast
1:49 PM 37.4 °F 29.8 °F 33.8 °F 87% 30.02 in 15.0 mi SE 11.5 mph - N/A   Mostly Cloudy
2:47 PM 39.2 °F 33.6 °F 33.8 °F 81% 30.02 in 15.0 mi SSE 8.1 mph - N/A   Mostly Cloudy
3:51 PM 41.0 °F 34.7 °F 32.0 °F 70% 30.02 in 20.0 mi SSE 10.4 mph - N/A   Mostly Cloudy
4:50 PM 39.2 °F 35.9 °F 33.8 °F 81% 30.03 in 20.0 mi SE 4.6 mph - N/A   Mostly Cloudy
5:55 PM 39.2 °F - 33.8 °F 81% 30.02 in 20.0 mi Calm Calm - N/A   Mostly Cloudy
6:49 PM 39.2 °F - 33.8 °F 81% 30.02 in 20.0 mi Calm Calm - N/A   Mostly Cloudy
7:47 PM 35.6 °F 32.8 °F 33.8 °F 93% 30.02 in 10.0 mi NNE 3.5 mph - N/A   Mostly Cloudy
8:58 PM 35.6 °F 30.7 °F 32.0 °F 87% 30.01 in 10.0 mi NNE 5.8 mph - N/A   Mostly Cloudy
9:30 PM 35.6 °F 32.8 °F 32.0 °F 87% 30.01 in 10.0 mi North 3.5 mph - N/A   Mostly Cloudy